Regional Weather Roundup
Issued by NWS San Diego, CA

Home | Current Version | Previous Version | Text Only | Print | Product List | Glossary On
Versions: 1 2 3 4 5 6 7 8 9 10 11 12 13 14 15 16 17 18 19 20 21 22 23 24 25 26 27 28 29 30 31 32 33 34 35 36 37 38 39 40 41 42 43 44 45 46 47 48 49 50
000
ASUS46 KSGX 221610
RWRSGX

SAN DIEGO HOURLY WEATHER ROUNDUP
NATIONAL WEATHER SERVICE SAN DIEGO CA
900 AM PDT FRI AUG 22 2014

NOTE: "FAIR" INDICATES FEW OR NO CLOUDS BELOW 12,000 FEET WITH NO
SIGNIFICANT WEATHER AND/OR OBSTRUCTIONS TO VISIBILITY.

CAZ042-043-060-061-PZZ750-775-221700-

GREATER SAN DIEGO AREA

CITY           SKY/WX    TMP DP  RH WIND       PRES   REMARKS
LINDBERGH FLD  MOSUNNY   71  64  78 CALM      29.98S
POINT LOMA       N/A     72  63  73 SW2         N/A
NATIONAL CITY    N/A     73  67  82 NW5       29.98R
CHULA VISTA      N/A     72  67  84 CALM      29.91R
IMPERIAL BEACH MOSUNNY   72  65  78 W7        29.97R
BROWN FIELD    SUNNY     73  63  70 CALM      29.98R
MIRAMAR MCAS   MOSUNNY   74  62  66 SW5       29.97S
MONTGOMERY FLD MOSUNNY   73  64  73 SW3       29.98R

$$

NORTH SAN DIEGO COUNTY

CITY           SKY/WX    TMP DP  RH WIND       PRES   REMARKS
CAMP PENDLETON CLOUDY    68  63  84 CALM      29.97R
OCEANSIDE AP   CLOUDY    72  64  76 CALM      29.96S
VISTA            N/A     68  64  86 CALM      29.95R
CARLSBAD       MOSUNNY   71  63  75 VRB3      29.96R
DEL MAR          N/A     70  67  90 CALM      29.99R
LA JOLLA SCRIP   N/A     69  66  90 W1        29.95R
FALLBROOK        N/A     66  66 100 CALM      29.97S
ESCONDIDO        N/A     74  65  74 CALM      29.98R
SAN MARCOS       N/A     72  66  82 NW3       29.95R
POWAY            N/A     76  66  70 CALM      29.97S
R. PENASQUITOS   N/A     70  67  91 CALM      29.97R

$$

EAST SAN DIEGO COUNTY

CITY           SKY/WX    TMP DP  RH WIND       PRES   REMARKS
RAMONA         SUNNY     76  59  55 CALM      29.99S
SANTEE LAKES     N/A     73  65  78 CALM      29.97S
GILLESPIE FLD  FAIR      73  63  68 CALM      29.99R
LA MESA          N/A     71  66  83 CALM      29.91R
JAMUL            N/A     74  65  74 CALM      29.95R
DESCANSO N       N/A     75  54  46 E3        29.85F
MT. LAGUNA OBS   N/A     61  47  59 W6        29.77S
CAMPO            N/A     74  54  49 CALM      30.02R

$$

ORANGE COUNTY AND THE LOS ANGELES BASIN

CITY           SKY/WX    TMP DP  RH WIND       PRES   REMARKS
JOHN WAYNE AP  PTSUNNY   72  64  76 CALM      29.97R
LAGUNA BEACH     N/A     70  66  86 CALM      29.93R
LAKE FOREST FR   N/A     67  61  80 CALM      29.88R
SANTA ANA        N/A     69  66  89 CALM      29.92R
HUNTINGTON BCH   N/A     70  67  90 CALM      29.99R
LOS ALAMITOS   MOSUNNY   72  64  76 S2        29.97R
FULLERTON      SUNNY     74  61  63 S3        29.96R
LONG BEACH     CLOUDY    72  64  78 CALM      29.96S
L.A. AP        PTSUNNY   70  63  78 W3        29.97R
L.A. DOWNTOWN  MOSUNNY   72  64  76 VRB3      29.96R

$$

THE INLAND EMPIRE

CITY           SKY/WX    TMP DP  RH WIND       PRES   REMARKS
CHINO          SUNNY     74  63  68 W5        29.98R
ONTARIO        SUNNY     74  62  66 VRB6      29.97S
SAN BERNARDINO SUNNY     72  59  64 CALM      29.99R
RIVERSIDE AP   SUNNY     73  62  68 W6        29.98R
RIV CYN CREST    N/A     72  70  94 S2        29.95R
MORENO VALLEY    N/A     75  66  72 SW2       29.18R
MARCH ARB      SUNNY     73  62  69 SE3       30.00R
HORSETHIEF CYN   N/A     76  58  53 CALM      29.96R
PERRIS           N/A     72  63  74 CALM      29.97R
MENIFEE          N/A     73  64  73 SE2       30.04R
HEMET EAST       N/A     74  55  52 CALM      29.94S
FRENCH VALLEY  FAIR      72  59  64 CALM      29.99S
TEMECULA         N/A     69  61  76 CALM      29.96R

$$

SAN BERNARDINO AND RIVERSIDE COUNTY MOUNTAINS

CITY           SKY/WX    TMP DP  RH WIND       PRES   REMARKS
BIG BEAR AP    SUNNY     59  50  72 CALM      30.25S
BIG BEAR SHEA    N/A     62  46  57 NW1       29.95F
ANGELUS OAKS     N/A     62  49  63 CALM      29.87S
PINE COVE        N/A     62  49  62 CALM      29.85R

$$

SOUTHERN DESERT INCLUDING THE COACHELLA VALLEY

CITY           SKY/WX    TMP DP  RH WIND       PRES   REMARKS
PALM SPRINGS   SUNNY     80  63  55 NE5       29.97S
THOUSAND PALMS   N/A     79  65  62 S2        29.93R
PALM DESERT      N/A     81  65  58 CALM      29.58S
THERMAL        SUNNY     81  64  56 VRB3      29.92S
BLYTHE         SUNNY     76  64  66 CALM      29.96R
IMPERIAL AP    SUNNY     76  66  71 NE3       29.93R
EL CENTRO NAS  SUNNY     78  66  66 N3        29.93S
YUMA AZ        MOSUNNY   79  64  60 NE7       29.94S
MEXICALI       SUNNY     77  66  69 CALM      29.95

$$

UPPER DESERT

CITY           SKY/WX    TMP DP  RH WIND       PRES   REMARKS
VICTORVILLE AP SUNNY     77  52  41 SE6       30.02F
HESPERIA         N/A     77  56  48 W1        30.00S
APPLE VALLEY     N/A     74  55  50 S1        30.07F
GRAY BUTTE AP  FAIR      80  46  30 VRB3      30.02F
PALMDALE       SUNNY     80  49  33 VRB5      29.99F
LANCASTER      SUNNY     79  51  37 VRB3      29.98F
EDWARDS AFB    SUNNY     78  50  36 SW9       29.96F
DAGGETT        SUNNY     79  54  41 CALM      29.98F
29 PALMS N     SUNNY     74  55  51 SE3       30.08S
NEEDLES        SUNNY     82  58  43 VRB5      29.97S

$$

REGIONAL REPORTS

CITY           SKY/WX    TMP DP  RH WIND       PRES   REMARKS
SANTA BARBARA  FOG       63  60  90 SE3       29.97R VSB 1/2
SANDBERG       SUNNY     75  45  34 VRB5      30.12S
MT. WILSON       N/A     68  48  49 MISG        N/A
LAS VEGAS NV   SUNNY     78  52  40 SW3       29.96S
PHOENIX AZ     PTSUNNY   77  65  66 E5        29.98S
TIJUANA        SUNNY     73  61  64 CALM      30.00R
ENSENADA NW      N/A     73  32  22 SW7       29.93F

$$

OFFSHORE ISLANDS

CITY           SKY/WX    TMP DP  RH WIND       PRES   REMARKS
CATALINA ARPT  MOSUNNY   63  61  93 CALM      30.00R
SAN CLEMENTE I PTSUNNY   69  60  73 SW6       29.99R
SAN NICOLAS IS CLOUDY    67  57  70 SW8       29.98R

$$

MARINE AND OFFSHORE BUOY REPORTS

STATION/POSITION SKY/WX   TEMP    WIND        PRES    SWELL
                          AIR SEA DIR/SP/G            HT/PER/DIR
                          (F)     (DEG/KT/KT) (MB)    (FT/S/D)
TANNER BANKS               65 69  270/  4/  6 1015.2R   5/180/11
S CLEMENTE BASIN           67 70  260/  6/  8 1014.9R   5/200/12
SAN NICOLAS IS.               66                N/A     3/180/12
SO. S. ROSA ISLA           62 67  270/  6/  8 1014.5R   5/10
W. S. BARBARA CH           59 63  320/ 12/ 14 1013.8R   3/200/10
M. S. BARBARA CH           62 64  230/ 10/ 10 1014.1
S. MONICA BASIN            67 72  220/  4/  6 1014.5R   2/170/ 9
S PEDRO CHANNEL               69                N/A     2/170/11
DANA POINT                    71                N/A     2/190/11
CMP PENDLETON NS              72                N/A     2/210/11
OCEANSIDE OFFSHR              73                N/A     2/190/11
TORREY PINES OTR              73                N/A     3/190/13
LA JOLLA 1                 72 69   CALM  /  2 1014.9R
MISSION BAY BUOY              71                N/A     3/190/12
SAN DIEGO BAY                 73              1015.3S
POINT LOMA SOUTH              73                N/A     3/190/11

$$




USA.gov is the U.S. government's official web portal to all federal, state and local government web resources and services.